| time (UTC) | temp C | wind direction | speed KPH | gust KPH | rain 1hr cm | rain 24hr cm | rain mn cm | humidity % | barometer mb |
| 20260506103100 | 16 | 223 | 8.0 | 16.1 | 0.00 | 0.56 | 0.03 | 69 | 1005.9 |
| 20260506101557 | 16 | 255 | 8.0 | 17.7 | 0.00 | 0.56 | 0.03 | 70 | 1006.0 |
| 20260506100056 | 16 | 230 | 8.0 | 16.1 | 0.00 | 0.56 | 0.03 | 72 | 1006.0 |
| 20260506094557 | 15 | 243 | 9.7 | 16.1 | 0.00 | 0.56 | 0.03 | 73 | 1006.0 |
| 20260506093056 | 15 | 247 | 6.4 | 14.5 | 0.03 | 0.56 | 0.03 | 72 | 1005.9 |
| 20260506091559 | 16 | 235 | 6.4 | 14.5 | 0.03 | 0.56 | 0.03 | 70 | 1005.7 |
| 20260506090100 | 16 | 255 | 8.0 | 22.5 | 0.03 | 0.56 | 0.03 | 71 | 1005.8 |
| 20260506084553 | 16 | 223 | 12.9 | 19.3 | 0.03 | 0.56 | 0.03 | 71 | 1005.8 |
| 20260506083050 | 16 | 241 | 11.3 | 24.1 | 0.00 | 0.53 | 0.00 | 71 | 1005.6 |
| 20260506081546 | 15 | 237 | 6.4 | 19.3 | 0.00 | 0.53 | 0.00 | 75 | 1005.5 |
| 20260506073038 | 15 | 197 | 8.0 | 12.9 | 0.00 | 0.53 | 0.00 | 80 | 1005.5 |
| 20260506071535 | 14 | 210 | 8.0 | 16.1 | 0.00 | 0.53 | 0.00 | 82 | 1005.4 |
| 20260506061523 | 13 | 197 | 0.0 | 12.9 | 0.00 | 0.53 | 0.00 | 90 | 1005.4 |
| 20260506044512 | 11 | 147 | 0.0 | 8.0 | 0.00 | 0.53 | 0.00 | 94 | 1005.4 |
| 20260506043013 | 11 | 151 | 0.0 | 4.8 | 0.00 | 0.53 | 0.00 | 94 | 1005.4 |
| 20260506041507 | 12 | 147 | 0.0 | 9.7 | 0.00 | 0.53 | 0.00 | 94 | 1005.5 |
| 20260506040007 | 12 | 141 | 4.8 | 11.3 | 0.00 | 0.53 | 0.00 | 94 | 1005.5 |
| 20260506034510 | 12 | 201 | 4.8 | 11.3 | 0.00 | 0.53 | 0.00 | 94 | 1005.6 |
| 20260506033003 | 12 | 142 | 1.6 | 9.7 | 0.00 | 0.53 | 0.00 | 94 | 1005.7 |
| 20260506031503 | 12 | 149 | 0.0 | 4.8 | 0.00 | 0.53 | 0.00 | 94 | 1005.6 |
| 20260506030007 | 12 | 176 | 1.6 | 8.0 | 0.00 | 0.53 | 0.00 | 94 | 1005.7 |
| 20260506024619 | 12 | 142 | 0.0 | 8.0 | 0.00 | 0.53 | 0.00 | 95 | 1005.6 |
| 20260506023100 | 12 | 144 | 0.0 | 6.4 | 0.00 | 0.53 | 0.00 | 95 | 1005.7 |
| 20260506021559 | 12 | 178 | 0.0 | 0.0 | 0.00 | 0.53 | 0.00 | 95 | 1005.7 |
| 20260506020058 | 12 | 137 | 0.0 | 0.0 | 0.00 | 0.53 | 0.00 | 95 | 1005.7 |
| 20260506014555 | 12 | 197 | 0.0 | 0.0 | 0.00 | 0.53 | 0.00 | 95 | 1005.9 |
| 20260506013107 | 12 | 219 | 0.0 | 0.0 | 0.00 | 0.53 | 0.00 | 95 | 1006.0 |
| 20260506011606 | 11 | 219 | 0.0 | 0.0 | 0.00 | 0.53 | 0.00 | 95 | 1006.0 |
| 20260506010056 | 12 | 197 | 0.0 | 0.0 | 0.00 | 0.53 | 0.00 | 94 | 1006.0 |
| 20260506004549 | 12 | 178 | 0.0 | 0.0 | 0.00 | 0.53 | 0.00 | 94 | 1006.3 |
| 20260506003048 | 12 | 190 | 1.6 | 6.4 | 0.00 | 0.53 | 0.00 | 94 | 1006.2 |
| 20260506001547 | 12 | 181 | 0.0 | 4.8 | 0.00 | 0.53 | 0.00 | 94 | 1006.2 |
| 20260506000047 | 12 | 209 | 0.0 | 0.0 | 0.00 | 0.53 | 0.00 | 94 | 1006.3 |
| 20260505234543 | 12 | 188 | 0.0 | 3.2 | 0.00 | 0.53 | 0.00 | 94 | 1006.4 |
| 20260505233042 | 12 | 220 | 0.0 | 9.7 | 0.00 | 0.53 | 0.00 | 94 | 1006.5 |
| 20260505231541 | 13 | 194 | 1.6 | 8.0 | 0.00 | 0.53 | 0.00 | 94 | 1006.5 |
| 20260505230051 | 13 | 199 | 0.0 | 9.7 | 0.00 | 0.53 | 0.00 | 94 | 1006.5 |
| 20260505224536 | 13 | 209 | 0.0 | 8.0 | 0.00 | 0.53 | 0.00 | 94 | 1006.5 |
| 20260505223040 | 13 | 163 | 0.0 | 8.0 | 0.03 | 0.53 | 0.00 | 94 | 1006.5 |
| 20260505221535 | 13 | 174 | 0.0 | 8.0 | 0.05 | 0.53 | 0.00 | 94 | 1006.5 |
| 20260505220030 | 13 | 182 | 1.6 | 6.4 | 0.08 | 0.53 | 0.00 | 93 | 1006.5 |
| 20260505214529 | 13 | 172 | 3.2 | 12.9 | 0.18 | 0.53 | 0.53 | 93 | 1006.6 |
| 20260505213040 | 14 | 190 | 0.0 | 0.0 | 0.15 | 0.51 | 0.51 | 93 | 1006.6 |
| 20260505211527 | 14 | 212 | 0.0 | 6.4 | 0.13 | 0.48 | 0.48 | 92 | 1006.7 |
| 20260505210028 | 15 | 144 | 0.0 | 4.8 | 0.08 | 0.43 | 0.43 | 92 | 1006.7 |
| 20260505204527 | 15 | 205 | 0.0 | 3.2 | 0.00 | 0.36 | 0.36 | 92 | 1006.6 |
| 20260505203040 | 15 | 208 | 0.0 | 0.0 | 0.00 | 0.36 | 0.36 | 91 | 1006.6 |
| 20260505201527 | 15 | 208 | 0.0 | 0.0 | 0.00 | 0.36 | 0.36 | 91 | 1006.6 |
| 20260505200033 | 15 | 208 | 0.0 | 0.0 | 0.00 | 0.36 | 0.36 | 91 | 1006.6 |
| 20260505194524 | 15 | 208 | 0.0 | 0.0 | 0.00 | 0.36 | 0.36 | 90 | 1006.7 |
| 20260505193024 | 15 | 208 | 0.0 | 0.0 | 0.00 | 0.36 | 0.36 | 90 | 1006.6 |
| 20260505191523 | 15 | 225 | 0.0 | 0.0 | 0.00 | 0.36 | 0.36 | 90 | 1006.4 |
| 20260505190027 | 15 | 225 | 0.0 | 0.0 | 0.00 | 0.36 | 0.36 | 89 | 1006.3 |
| 20260505184525 | 15 | 225 | 0.0 | 0.0 | 0.00 | 0.36 | 0.36 | 89 | 1006.4 |
| 20260505183022 | 15 | 225 | 0.0 | 0.0 | 0.00 | 0.36 | 0.36 | 88 | 1006.3 |
| 20260505181521 | 15 | 225 | 0.0 | 0.0 | 0.00 | 0.36 | 0.36 | 87 | 1006.4 |
| 20260505180021 | 15 | 242 | 0.0 | 0.0 | 0.00 | 0.36 | 0.36 | 86 | 1006.3 |
| 20260505174521 | 15 | 244 | 0.0 | 0.0 | 0.00 | 0.36 | 0.36 | 86 | 1006.3 |
| 20260505173036 | 15 | 230 | 0.0 | 0.0 | 0.00 | 0.36 | 0.36 | 86 | 1006.4 |
| 20260505171519 | 15 | 245 | 0.0 | 4.8 | 0.00 | 0.36 | 0.36 | 88 | 1006.5 |
| 20260505170023 | 15 | 205 | 0.0 | 4.8 | 0.00 | 0.36 | 0.36 | 88 | 1006.5 |
| 20260505164537 | 15 | 229 | 0.0 | 4.8 | 0.00 | 0.36 | 0.36 | 89 | 1006.5 |
| 20260505163017 | 15 | 215 | 0.0 | 4.8 | 0.00 | 0.36 | 0.36 | 89 | 1006.7 |
| 20260505161515 | 15 | 224 | 1.6 | 4.8 | 0.00 | 0.36 | 0.36 | 89 | 1006.7 |
| 20260505153012 | 15 | 261 | 1.6 | 4.8 | 0.03 | 0.36 | 0.36 | 90 | 1007.0 |
| 20260505151509 | 15 | 232 | 1.6 | 6.4 | 0.05 | 0.36 | 0.36 | 90 | 1007.0 |
| 20260505124600 | 20 | 278 | 1.6 | 6.4 | 0.00 | 0.00 | 0.00 | 61 | 1007.2 |
| 20260505123106 | 19 | 300 | 1.6 | 9.7 | 0.00 | 0.00 | 0.00 | 63 | 1007.2 |
| 20260505121558 | 19 | 300 | 6.4 | 12.9 | 0.00 | 0.00 | 0.00 | 62 | 1007.2 |
| 20260505120055 | 19 | 306 | 4.8 | 12.9 | 0.00 | 0.00 | 0.00 | 63 | 1007.3 |
| 20260505114553 | 19 | 279 | 4.8 | 12.9 | 0.00 | 0.00 | 0.00 | 64 | 1007.4 |
| 20260505113058 | 19 | 244 | 6.4 | 12.9 | 0.00 | 0.00 | 0.00 | 64 | 1007.5 |
| 20260505111556 | 19 | 194 | 1.6 | 8.0 | 0.00 | 0.00 | 0.00 | 64 | 1007.6 |